FW4672 Weather Reports


Display with metric or nautical units.
time (UTC)temp
F
wind
direction
speed
MPH
gust
MPH
rain 1hr
in
rain 24hr
in
rain mn
in
humidity
%
barometer
mb
20260906070930 72 315 0.0 0.0 0.00 0.00 0.00 86 1030.9
20260906070026 72 333 0.0 0.0 0.00 0.00 0.00 86 1030.9
20260906063027 72 315 0.0 0.0 0.00 0.00 0.00 87 1030.8
20260906062028 72 315 0.0 0.0 0.00 0.00 0.00 88 1031.0
20260906061027 72 315 0.0 0.0 0.00 0.00 0.00 87 1030.9
20260906060027 72 337 0.0 0.0 0.00 0.00 0.00 86 1031.0
20260906055126 73 327 0.0 0.0 0.00 0.00 0.00 85 1030.9
20260906054126 73 339 0.0 0.0 0.00 0.00 0.00 85 1030.8
20260906053128 73 315 0.0 0.0 0.00 0.00 0.00 83 1031.0
20260906052129 73 320 0.0 0.0 0.00 0.00 0.00 82 1031.0
20260906051127 72 320 0.0 0.0 0.00 0.00 0.00 81 1031.0
20260906050128 72 315 0.0 0.0 0.00 0.00 0.00 83 1030.8
20260906045128 72 315 0.0 0.0 0.00 0.00 0.00 84 1031.0
20260906044126 73 337 0.0 0.0 0.00 0.00 0.00 85 1030.9
20260906043128 73 360 0.0 0.0 0.00 0.00 0.00 84 1031.0
20260906042130 73 360 0.0 0.0 0.00 0.00 0.00 83 1030.8
20260906041127 72 360 0.0 0.0 0.00 0.00 0.00 83 1030.8
20260906040226 72 360 0.0 0.0 0.00 0.00 0.00 83 1030.8
20260906035228 73 360 0.0 0.0 0.00 0.00 0.00 83 1030.8
20260906034229 73 360 0.0 0.0 0.00 0.00 0.00 82 1030.7
20260906033227 73 360 0.0 0.0 0.00 0.00 0.00 82 1030.7
20260906032227 72 323 0.0 0.0 0.00 0.00 0.00 82 1030.8
20260906030228 73 327 0.0 0.0 0.00 0.00 0.00 83 1030.5
20260906025226 73 316 0.0 0.0 0.00 0.00 0.00 82 1030.4
20260906024227 73 316 0.0 0.0 0.00 0.00 0.00 78 1030.5
20260906023227 73 326 0.0 0.0 0.00 0.00 0.00 80 1030.3
20260906020327 73 315 0.0 0.0 0.00 0.00 0.00 84 1030.5
20260906015328 73 275 0.0 0.0 0.00 0.00 0.00 83 1030.4
20260906013328 74 233 0.0 0.0 0.00 0.00 0.00 80 1030.5
20260906012426 75 278 0.0 0.0 0.00 0.00 0.00 80 1030.5
20260906011429 75 292 0.0 0.0 0.00 0.00 0.00 80 1030.5
20260906010427 75 278 0.0 0.0 0.00 0.00 0.00 78 1030.5
20260906005428 76 247 0.0 0.0 0.00 0.00 0.00 74 1030.3
20260906004429 77 262 0.0 0.0 0.00 0.00 0.00 75 1030.3
20260906003428 76 268 0.0 0.0 0.00 0.00 0.00 76 1030.2
20260906002429 77 275 0.0 0.0 0.00 0.00 0.00 74 1030.3
20260906001428 78 284 0.0 0.0 0.00 0.00 0.00 73 1030.3
20260906000428 79 286 0.0 0.0 0.00 0.00 0.00 73 1030.3
20260905234427 79 275 0.0 0.0 0.00 0.00 0.00 75 1030.3
20260905233428 79 249 0.0 0.0 0.00 0.00 0.00 74 1030.3
20260905232528 79 274 0.0 0.0 0.00 0.00 0.00 74 1030.2
20260905231626 80 281 0.0 0.0 0.00 0.00 0.00 72 1030.3
20260905230628 80 253 0.0 0.0 0.00 0.00 0.00 72 1030.3
20260905225628 80 269 0.0 0.0 0.00 0.00 0.00 69 1030.4
20260905224726 80 258 0.0 0.0 0.00 0.00 0.00 67 1030.5
20260905223730 80 258 0.0 0.0 0.00 0.00 0.00 68 1030.5
20260905222728 80 320 0.0 0.0 0.00 0.00 0.00 70 1030.5
20260905221827 80 319 0.0 0.0 0.00 0.00 0.00 72 1030.6
20260905220827 79 268 0.0 0.0 0.00 0.00 0.00 74 1030.9
20260905215829 79 328 0.0 0.0 0.00 0.00 0.00 74 1031.0
20260905214828 79 328 0.0 0.0 0.00 0.00 0.00 73 1031.0
20260905213828 79 317 0.0 0.0 0.00 0.00 0.00 73 1031.0
20260905212828 79 318 0.0 0.0 0.00 0.00 0.00 74 1031.1
20260905210926 79 318 0.0 0.0 0.00 0.00 0.00 76 1031.4
20260905205928 78 323 0.0 0.0 0.00 0.00 0.00 75 1031.3
20260905205027 78 318 0.0 0.0 0.00 0.00 0.00 75 1031.3
20260905204027 78 317 0.0 0.0 0.00 0.00 0.00 74 1031.5
20260905203027 79 326 0.0 0.0 0.00 0.00 0.00 74 1031.6
20260905202028 78 326 0.0 0.0 0.00 0.00 0.00 75 1031.6
20260905201126 78 320 0.0 0.0 0.00 0.00 0.00 75 1031.6
20260905200129 78 323 0.0 0.0 0.00 0.00 0.00 73 1031.6
20260905195227 77 318 0.0 0.0 0.00 0.00 0.00 73 1032.0
20260905194230 76 323 0.0 0.0 0.00 0.00 0.00 74 1032.0
20260905193229 76 326 0.0 0.0 0.00 0.00 0.00 75 1032.1
20260905192228 75 323 0.0 0.0 0.00 0.00 0.00 76 1032.3
20260905191226 74 316 0.0 0.0 0.00 0.00 0.00 75 1032.5
20260905190227 74 319 0.0 0.0 0.00 0.00 0.00 75 1032.6
20260905184228 74 316 0.0 0.0 0.00 0.00 0.00 74 1032.7
20260905183227 74 326 0.0 0.0 0.00 0.00 0.00 73 1032.5
20260905182228 74 326 0.0 0.0 0.00 0.00 0.00 71 1032.7
20260905181326 74 332 0.0 0.0 0.00 0.00 0.00 70 1032.8
20260905180329 74 318 0.0 0.0 0.00 0.00 0.00 71 1032.8
20260905175327 74 333 0.0 0.0 0.00 0.00 0.00 71 1032.8
20260905174327 74 329 0.0 0.0 0.00 0.00 0.00 70 1032.8
20260905173329 73 337 0.0 0.0 0.00 0.00 0.00 70 1032.9
20260905172328 72 334 0.0 0.0 0.00 0.00 0.00 71 1032.6
20260905171327 72 318 0.0 0.0 0.00 0.00 0.00 71 1032.6
20260905170328 71 319 0.0 0.0 0.00 0.00 0.00 72 1032.7
20260905165326 71 316 0.0 0.0 0.00 0.00 0.00 72 1032.7
20260905164327 71 329 0.0 0.0 0.00 0.00 0.00 73 1032.5
20260905163328 70 337 0.0 0.0 0.00 0.00 0.00 77 1032.4
20260905162329 69 315 0.0 0.0 0.00 0.00 0.00 78 1032.6
20260905161426 69 315 0.0 0.0 0.00 0.00 0.00 80 1032.5
20260905155429 69 337 0.0 0.0 0.00 0.00 0.00 80 1032.6
20260905154528 69 337 0.0 0.0 0.00 0.00 0.00 80 1032.7
20260905153527 69 328 0.0 0.0 0.00 0.00 0.00 78 1032.6
20260905152627 69 180 0.0 0.0 0.00 0.00 0.00 78 1032.4
20260905151629 69 180 0.0 0.0 0.00 0.00 0.00 79 1032.2
20260905150627 69 180 0.0 0.0 0.00 0.00 0.00 81 1032.3
20260905145629 68 360 0.0 0.0 0.00 0.00 0.00 86 1032.2
20260905143727 66 360 0.0 0.0 0.00 0.00 0.00 87 1032.1
20260905142727 66 360 0.0 0.0 0.00 0.00 0.00 88 1031.9
20260905141728 65 360 0.0 0.0 0.00 0.00 0.00 88 1031.8
20260905135728 63 360 0.0 0.0 0.00 0.00 0.00 90 1031.8
20260905134825 62 360 0.0 0.0 0.00 0.00 0.00 90 1031.6
20260905132827 62 360 0.0 0.0 0.00 0.00 0.00 89 1031.4
20260905131829 63 360 0.0 0.0 0.00 0.00 0.00 86 1031.3
20260905130828 64 360 0.0 0.0 0.00 0.00 0.00 88 1031.2
20260905125728 64 360 0.0 0.0 0.00 0.00 0.00 89 1031.2
20260905124729 64 360 0.0 0.0 0.00 0.00 0.00 89 1031.3
20260905122827 63 360 0.0 0.0 0.00 0.00 0.00 90 1031.2
20260905121827 63 360 0.0 0.0 0.00 0.00 0.00 90 1031.3
20260905120826 64 360 0.0 0.0 0.00 0.00 0.00 90 1031.3
20260905115829 64 360 0.0 0.0 0.00 0.00 0.00 90 1031.3
20260905114926 64 360 0.0 0.0 0.00 0.00 0.00 90 1031.2
20260905114026 64 360 0.0 0.0 0.00 0.00 0.00 90 1031.2
20260905113029 64 360 0.0 0.0 0.00 0.00 0.00 91 1031.2
20260905111128 64 360 0.0 0.0 0.00 0.00 0.00 91 1031.6
20260905110226 64 360 0.0 0.0 0.00 0.00 0.00 91 1031.7
20260905105229 64 360 0.0 0.0 0.00 0.00 0.00 91 1031.5
20260905104227 64 360 0.0 0.0 0.00 0.00 0.00 91 1031.6
20260905103227 64 360 0.0 0.0 0.00 0.00 0.00 91 1031.6
20260905102227 64 360 0.0 0.0 0.00 0.00 0.00 91 1031.7
20260905100229 64 360 0.0 0.0 0.00 0.00 0.00 91 1031.7
20260905095230 64 360 0.0 0.0 0.00 0.00 0.00 91 1031.8
20260905094327 64 360 0.0 0.0 0.00 0.00 0.00 91 1031.7
20260905092328 64 360 0.0 0.0 0.00 0.00 0.00 91 1031.8
20260905091329 64 360 0.0 0.0 0.00 0.00 0.00 91 1031.8
20260905090425 64 360 0.0 0.0 0.00 0.00 0.00 91 1031.9
20260905085429 64 360 0.0 0.0 0.00 0.00 0.00 90 1032.0
20260905084427 64 360 0.0 0.0 0.00 0.00 0.00 90 1032.1
20260905083428 64 360 0.0 0.0 0.00 0.00 0.00 90 1032.2
20260905082526 64 180 0.0 0.0 0.00 0.00 0.00 90 1032.1
20260905081527 64 180 0.0 0.0 0.00 0.00 0.00 90 1032.3
20260905080531 64 180 0.0 0.0 0.00 0.00 0.00 90 1032.4
20260905075527 64 180 0.0 0.0 0.00 0.00 0.00 90 1032.5
20260905073627 65 180 0.0 0.0 0.00 0.00 0.00 89 1032.7
20260905071627 65 180 0.0 0.0 0.00 0.00 0.00 90 1032.4